Weather History for Hot Springs, VA

Change the Weather History Date:

Tuesday, January 15, 2002

  Actual Average Record
Temperature  
Mean Temperature 34 °F -  
Max Temperature 39 °F 30 °F 57 °F (2007)
Min Temperature 28 °F 17 °F 5 °F (2003)
Degree Days  
Heating Degree Days 32    
Moisture  
Dew Point 27 °F    
Average Humidity 77    
Maximum Humidity 100    
Minimum Humidity 60    
Precipitation  
Precipitation 0.00 in - - ()
Sea Level Pressure  
Sea Level Pressure 29.84 in    
Wind  
Wind Speed 22 mph (WNW)    
Max Wind Speed 30 mph    
Max Gust Speed 43 mph    
Visibility 10 miles    
Events      
Averages and records for this station are not official NWS values.
T = Trace of Precipitation, MM = Missing Value Source: NWS Daily Summary

Daily Weather History Graph

Daily Weather History Graph

Search for Another Location

Airport:

Trip Planner

Search our weather history database for the weather conditions in past years. The results will help you decide how hot, cold, wet, or windy it might be!

Date:

Astronomy

Jan. 15, 2002 Rise Set
Actual Time 7:34 AM EST 5:23 PM EST
Civil Twilight 7:05 AM EST 5:52 PM EST
Nautical Twilight 6:32 AM EST 6:24 PM EST
Astronomical Twilight 6:01 AM EST 6:56 PM EST
Moon 9:11 AM EST (1/15) 7:27 PM EST (1/15)
Length of Visible Light 10h 47m
Length of Day
9h 49m
Waxing Crescent, 4% of the Moon is Illuminated
Jan 15
Waxing Crescent
Jan 21
First Quarter
Jan 28
Full
Feb 4
Last Quarter
Feb 12
New

Hourly Weather History & Observations

Time (EST) Temp. Windchill Dew Point Humidity Pressure Visibility Wind Dir Wind Speed Gust Speed Precip Events Conditions
12:01 AM 37.4 °F 27.2 °F 30.2 °F 75% 29.79 in 10.0 mi West 19.6 mph 25.3 mph N/A   Clear
12:23 AM 37.4 °F 27.8 °F 30.2 °F 75% 29.79 in 10.0 mi West 17.3 mph - N/A   Clear
12:41 AM 37.4 °F 27.8 °F 30.2 °F 75% 29.79 in 10.0 mi West 17.3 mph 26.5 mph N/A   Clear
1:01 AM 37.4 °F 27.5 °F 30.2 °F 75% 29.79 in 10.0 mi West 18.4 mph 23.0 mph N/A   Clear
1:21 AM 37.4 °F 27.8 °F 30.2 °F 75% 29.78 in 10.0 mi West 17.3 mph - N/A   Clear
1:41 AM 37.4 °F 27.5 °F 32.0 °F 81% 29.77 in 10.0 mi West 18.4 mph 25.3 mph N/A   Mostly Cloudy
2:01 AM 39.2 °F 29.8 °F 32.0 °F 75% 29.79 in 10.0 mi West 18.4 mph 26.5 mph N/A   Overcast
2:21 AM 39.2 °F 29.0 °F 32.0 °F 75% 29.78 in 10.0 mi West 21.9 mph 27.6 mph N/A   Overcast
2:41 AM 37.4 °F 26.9 °F 33.8 °F 87% 29.78 in 10.0 mi West 20.7 mph 28.8 mph N/A   Overcast
3:01 AM 37.4 °F 27.2 °F 33.8 °F 87% 29.78 in 10.0 mi WNW 19.6 mph 28.8 mph N/A   Mostly Cloudy
3:21 AM 37.4 °F 26.6 °F 33.8 °F 87% 29.78 in 10.0 mi WNW 21.9 mph 31.1 mph N/A   Mostly Cloudy
3:41 AM 37.4 °F 26.6 °F 33.8 °F 87% 29.78 in 10.0 mi WNW 21.9 mph 31.1 mph N/A   Overcast
4:01 AM 35.6 °F 24.0 °F 33.8 °F 93% 29.78 in 10.0 mi WNW 23.0 mph 31.1 mph N/A   Overcast
4:21 AM 35.6 °F 23.4 °F 33.8 °F 93% 29.78 in 10.0 mi WNW 25.3 mph 32.2 mph N/A   Overcast
4:41 AM 35.6 °F 23.2 °F 33.8 °F 93% 29.78 in 10.0 mi WNW 26.5 mph 34.5 mph N/A   Overcast
5:01 AM 33.8 °F 21.3 °F 33.8 °F 100% 29.79 in 10.0 mi WNW 24.2 mph 34.5 mph N/A   Overcast
5:21 AM 33.8 °F 20.1 °F 30.2 °F 87% 29.78 in 10.0 mi WNW 29.9 mph 36.8 mph N/A   Overcast
5:41 AM 33.8 °F 20.5 °F 28.4 °F 81% 29.78 in 10.0 mi WNW 27.6 mph 42.6 mph N/A   Overcast
6:01 AM 33.8 °F 21.6 °F 28.4 °F 81% 29.79 in 10.0 mi WNW 23.0 mph 39.1 mph N/A   Overcast
6:21 AM 33.8 °F 20.5 °F 28.4 °F 81% 29.79 in 10.0 mi WNW 27.6 mph 39.1 mph N/A   Overcast
6:41 AM 32.0 °F 17.6 °F 26.6 °F 80% 29.79 in 10.0 mi WNW 29.9 mph 38.0 mph N/A   Mostly Cloudy
7:01 AM 30.2 °F 15.7 °F 26.6 °F 86% 29.80 in 10.0 mi NW 27.6 mph 38.0 mph N/A   Mostly Cloudy
7:21 AM 30.2 °F 15.9 °F 26.6 °F 86% 29.80 in 10.0 mi WNW 26.5 mph 33.4 mph N/A   Mostly Cloudy
7:41 AM 30.2 °F 16.5 °F 26.6 °F 86% 29.81 in 10.0 mi NW 24.2 mph 38.0 mph N/A   Mostly Cloudy
8:01 AM 30.2 °F 15.4 °F 24.8 °F 80% 29.81 in 10.0 mi WNW 28.8 mph 41.4 mph N/A   Scattered Clouds
8:21 AM 30.2 °F 15.2 °F 24.8 °F 80% 29.82 in 10.0 mi WNW 29.9 mph 38.0 mph N/A   Scattered Clouds
8:41 AM 30.2 °F 16.5 °F 26.6 °F 86% 29.83 in 10.0 mi WNW 24.2 mph 36.8 mph N/A   Scattered Clouds
9:01 AM 30.2 °F 17.1 °F 24.8 °F 80% 29.84 in 10.0 mi NW 21.9 mph 38.0 mph N/A   Mostly Cloudy
9:21 AM 32.0 °F 19.2 °F 26.6 °F 80% 29.84 in 10.0 mi WNW 23.0 mph 29.9 mph N/A   Mostly Cloudy
9:41 AM 30.2 °F 17.1 °F 24.8 °F 80% 29.85 in 10.0 mi WNW 21.9 mph 34.5 mph N/A   Overcast
10:01 AM 32.0 °F 20.8 °F 26.6 °F 80% 29.86 in 10.0 mi WNW 17.3 mph 34.5 mph N/A   Overcast
10:22 AM 32.0 °F 19.8 °F 24.8 °F 75% 29.87 in 10.0 mi WNW 20.7 mph 32.2 mph N/A   Overcast
10:41 AM 30.2 °F 17.1 °F 24.8 °F 80% 29.87 in 10.0 mi WNW 21.9 mph 34.5 mph N/A   Overcast
11:01 AM 30.2 °F 18.5 °F 26.6 °F 86% 29.88 in 10.0 mi WNW 17.3 mph 31.1 mph N/A   Mostly Cloudy
11:22 AM 33.8 °F 21.9 °F 26.6 °F 75% 29.88 in 10.0 mi WNW 21.9 mph 31.1 mph N/A   Mostly Cloudy
11:42 AM 33.8 °F 21.9 °F 26.6 °F 75% - 10.0 mi WNW 21.9 mph 28.8 mph N/A   Scattered Clouds
12:01 PM 33.8 °F 22.5 °F 26.6 °F 75% 29.87 in 10.0 mi WNW 19.6 mph 32.2 mph N/A   Scattered Clouds
12:21 PM 35.6 °F 24.2 °F 26.6 °F 70% 29.87 in 10.0 mi WNW 21.9 mph 31.1 mph N/A   Clear
12:41 PM 35.6 °F 23.7 °F 26.6 °F 70% 29.87 in 10.0 mi West 24.2 mph 34.5 mph N/A   Clear
1:01 PM 35.6 °F 24.2 °F 24.8 °F 65% 29.87 in 10.0 mi WNW 21.9 mph 28.8 mph N/A   Scattered Clouds
1:21 PM 33.8 °F 21.9 °F 26.6 °F 75% 29.87 in 10.0 mi WNW 21.9 mph 28.8 mph N/A   Mostly Cloudy
1:41 PM 35.6 °F 24.2 °F 24.8 °F 65% 29.86 in 10.0 mi WNW 21.9 mph 31.1 mph N/A   Mostly Cloudy
2:01 PM 35.6 °F 24.0 °F 24.8 °F 65% 29.86 in 10.0 mi WNW 23.0 mph 34.5 mph N/A   Mostly Cloudy
2:21 PM 35.6 °F 23.2 °F 24.8 °F 65% 29.86 in 10.0 mi WNW 26.5 mph 32.2 mph N/A   Scattered Clouds
2:41 PM 35.6 °F 23.7 °F 24.8 °F 65% 29.86 in 10.0 mi WNW 24.2 mph 29.9 mph N/A   Scattered Clouds
3:01 PM 35.6 °F 24.0 °F 24.8 °F 65% 29.87 in 10.0 mi WNW 23.0 mph 29.9 mph N/A   Clear
3:21 PM 35.6 °F 24.8 °F 24.8 °F 65% 29.87 in 10.0 mi NW 19.6 mph 29.9 mph N/A   Clear
3:41 PM 35.6 °F 23.7 °F 24.8 °F 65% 29.88 in 10.0 mi WNW 24.2 mph 29.9 mph N/A   Clear
4:01 PM 33.8 °F 21.9 °F 24.8 °F 70% 29.89 in 10.0 mi WNW 21.9 mph 29.9 mph N/A   Clear
4:21 PM 33.8 °F 22.2 °F 23.0 °F 65% 29.89 in 10.0 mi WNW 20.7 mph 28.8 mph N/A   Clear
4:41 PM 33.8 °F 21.6 °F 21.2 °F 60% 29.89 in 10.0 mi WNW 23.0 mph 32.2 mph N/A   Clear
5:01 PM 32.0 °F 19.2 °F 21.2 °F 64% 29.90 in 10.0 mi WNW 23.0 mph 31.1 mph N/A   Clear
5:23 PM 30.2 °F 17.1 °F 21.2 °F 69% 29.91 in 10.0 mi WNW 21.9 mph 34.5 mph N/A   Clear
5:41 PM 30.2 °F 16.5 °F 21.2 °F 69% 29.92 in 10.0 mi West 24.2 mph 29.9 mph N/A   Scattered Clouds
6:01 PM 28.4 °F 13.3 °F 21.2 °F 74% 29.92 in 10.0 mi West 27.6 mph 36.8 mph N/A   Mostly Cloudy
6:21 PM 28.4 °F 12.7 °F 19.4 °F 69% 29.92 in 10.0 mi WNW 29.9 mph 39.1 mph N/A   Overcast
6:41 PM 28.4 °F 14.7 °F 21.2 °F 74% 29.94 in 10.0 mi WNW 21.9 mph 36.8 mph N/A   Overcast
7:01 PM 28.4 °F 16.2 °F 19.4 °F 69% 29.96 in 10.0 mi NW 17.3 mph 29.9 mph N/A   Overcast
7:21 PM 28.4 °F 14.4 °F 19.4 °F 69% 29.96 in 10.0 mi WNW 23.0 mph 32.2 mph N/A   Overcast
7:44 PM 26.6 °F 11.1 °F 17.6 °F 69% 29.96 in 10.0 mi WNW 26.5 mph 38.0 mph N/A   Overcast
8:01 PM 26.6 °F 13.1 °F 17.6 °F 69% 29.97 in 10.0 mi WNW 19.6 mph 34.5 mph N/A   Overcast
8:23 PM 26.6 °F 10.8 °F 17.6 °F 69% 29.97 in 10.0 mi WNW 27.6 mph 38.0 mph N/A   Overcast
8:41 PM 26.6 °F 12.4 °F 17.6 °F 69% 29.98 in 10.0 mi WNW 21.9 mph 39.1 mph N/A   Mostly Cloudy
9:01 PM 24.8 °F 7.9 °F 17.6 °F 74% 29.98 in 10.0 mi WNW 29.9 mph 39.1 mph N/A   Mostly Cloudy
9:21 PM 24.8 °F 10.7 °F 15.8 °F 69% 29.98 in 10.0 mi NW 19.6 mph 34.5 mph N/A   Scattered Clouds
9:41 PM 24.8 °F 10.0 °F 17.6 °F 74% 29.99 in 10.0 mi WNW 21.9 mph 35.7 mph N/A   Scattered Clouds
10:01 PM 23.0 °F 8.0 °F 15.8 °F 74% 30.00 in 10.0 mi WNW 20.7 mph 28.8 mph N/A   Clear
10:21 PM 23.0 °F 7.6 °F 15.8 °F 74% 30.01 in 10.0 mi NW 21.9 mph 36.8 mph N/A   Scattered Clouds
10:41 PM 23.0 °F 7.2 °F 15.8 °F 74% 30.01 in 10.0 mi NW 23.0 mph 32.2 mph N/A   Clear
11:01 PM 23.0 °F 6.9 °F 17.6 °F 80% 30.02 in 10.0 mi NW 24.2 mph 31.1 mph N/A   Clear
11:21 PM 23.0 °F 6.0 °F 15.8 °F 74% 30.02 in 10.0 mi NW 27.6 mph 35.7 mph N/A   Clear
11:41 PM 21.2 °F 4.9 °F 17.6 °F 86% 30.01 in 10.0 mi NW 23.0 mph 36.8 mph N/A   Clear